Regional Weather Roundup
Issued by NWS

Home | Current Version | Previous Version | Graphics & Text | Print | Product List | Glossary On
Versions: 1 2 3 4 5 6 7 8 9 10 11 12 13 14 15 16 17 18 19 20 21 22 23 24 25 26 27 28 29 30 31 32 33 34 35 36 37 38 39 40 41 42 43 44 45 46 47 48 49 50
000
ASUS44 KMEG 250010
RWRTN
TENNESSEE HOURLY STATE WEATHER ROUNDUP
NATIONAL WEATHER SERVICE MEMPHIS TN
700 PM CDT FRI OCT 24 2014

TNZ002-004-019-021-049-052-054-088>092-250100-
WEST TENNESSEE

CITY           SKY/WX    TMP DP  RH WIND       PRES   REMARKS
MEMPHIS INTL   PTCLDY    66  56  70 CALM      30.08S
NWS MEMPHIS      N/A     62 N/A N/A MISG        N/A
JACKSON        CLEAR     60  53  77 W5        30.08S
DYERSBURG      CLEAR     61  45  55 CALM      30.09R
UNION CITY     CLEAR     57  52  82 CALM      30.06S
PARIS          CLEAR     52  46  82 CALM      30.08S
HUNTINGDON     CLEAR     56  51  83 CALM      30.08R
LEXINGTON      CLEAR     57  54  88 CALM      30.07S
SAVANNAH       PTCLDY    55  54  94 CALM      30.09R
$$

TNZ008-025-027-028-033-062-065-066-250100-
NORTH MIDDLE TENNESSEE

CITY           SKY/WX    TMP DP  RH WIND       PRES   REMARKS
NASHVILLE      PTCLDY    63  45  51 NW3       30.08R
CLARKSVILLE    CLEAR     60  52  74 CALM      30.07S
SMYRNA         PTCLDY    56  49  77 CALM      30.09R
COOKEVILLE     CLEAR     46  45  93 CALM      30.08R
CROSSVILLE     CLEAR     57  37  47 NW3       30.09R
$$

TNZ061-075-076-078-094-096-097-250100-
SOUTH MIDDLE TENNESSEE

CITY           SKY/WX    TMP DP  RH WIND       PRES   REMARKS
FAYETTEVILLE   CLEAR     57  41  54 N7        30.08R
TULLAHOMA      CLEAR     54  43  66 CALM      30.09R
WINCHESTER     CLEAR     52  45  76 CALM      30.08R
MCMINNVILLE    CLEAR     54  45  71 CALM      30.08R
COLUMBIA       CLEAR     57  54  88 CALM      30.07R
SHELBYVILLE    CLEAR     55  46  71 CALM      30.09R
$$

TNZ017-018-042-046-047-250100-
NORTHEAST TENNESSEE

CITY           SKY/WX    TMP DP  RH WIND       PRES   REMARKS
TRI CITIES     PTCLDY    51  42  71 CALM      30.07R
ELIZABETHTON   CLEAR     45  41  87 CALM      30.08R
$$

TNZ012-013-036-069-073-074-250100-
CENTRAL EAST TENNESSEE

CITY           SKY/WX    TMP DP  RH WIND       PRES   REMARKS
KNOXVILLE      CLEAR     59  42  53 CALM      30.05R
OAK RIDGE      CLEAR     56  49  77 CALM      30.07R
GATLINBURG     PTCLDY    54  43  66 CALM      30.07R
MORRISTOWN     CLEAR     54  46  76 CALM      30.08R
$$

TNZ083-085-099-250100-
SOUTHEAST TENNESSEE

CITY           SKY/WX    TMP DP  RH WIND       PRES   REMARKS
CHATTANOOGA    PTCLDY    58  49  72 NW5       30.05R
$$

SKY/WX REPORTED AS FAIR MEANS FEW OR NO CLOUDS BELOW
12 THOUSAND FEET.




USA.gov is the U.S. government's official web portal to all federal, state and local government web resources and services.